Location: Devore Heights
(34.2372°N, 117.4156°W)
Time: 23:19:39
(UTC+00:00)

Explorer 11/Cluster Stage 4 - Pass Details

Date: 14 September 2024
Orbit: 464 x 1207 km, 28.8° (Epoch: 14 October)

Event Time Altitude Azimuth Distance (km) Brightness Sun altitude
Exits shadow 12:26:26 - 201° (SSW) 3,204 9.4 -14.3°
Reaches altitude 10° 12:29:27 10° 181° (S) 2,564 9.1 -13.7°
Maximum altitude 12:32:55 15° 147° (SSE) 2,347 9.3 -13.0°
Drops below altitude 10° 12:36:41 10° 114° (ESE) 2,855 10.3 -12.3°
Sets 12:40:55 0° 94° (E) 3,944 11.9 -11.4°
